Terug naar catalogus

SL-14 R/B

ActiefPO
NORAD 10974·ROCKET BODY·🇷🇺 Russia

Gelanceerd Jun 28, 1978 vanaf Plesetsk Cosmodrome

Loading…

Volgende Passages (komende 24 uur)

TLE

VersSource: Space-Track

Epoch: Sep 14, 2026, 07:09 UTC

1 10974U 78067B   26257.29808802  .00000402  00000-0  38904-4 0  9992
2 10974  82.4820 207.5847 0015084 305.3075  54.6732 14.90161881588491

Volg SL-14 R/B in realtime met AllMySat

Download on the App Store